"Pseudo-MPEC" for C162Y75

Created 2025 Oct 18 1:35:06 UT using Find_Orb

Click here for an explanation of pseudo-MPECs

 
 Astrometry: 
     C162Y75* C2025 10 04.28883102 58 45.372+15 14 17.34   ~A48Z 23.11GVNEOCPV00
     C162Y75  C2025 10 04.29443502 58 46.211+15 14 13.02   ~A48Z 23.26GVNEOCPV00
     C162Y75  C2025 10 04.30003402 58 47.046+15 14 09.46   ~A48Z 23.26GVNEOCPV00

Station data:
(V00) Kitt Peak-Bok  (N31.963125 W111.600190)  US/Arizona. Measurers T.
   Beuden, V. F. Carvajal, D. Fay, J. B. Fazekas, D. C. Fuls, A. R. Gibbs, A.
   D. Grauer, H. Gröller, J. K. Hogan, R. A. Kowalski, S. M. Larson, G. J.
   Leonard, D. Rankin, R. L. Seaman, F. C. Shelly, K. W. Wierzchoś. 2.25-m
   reflector + 4x4K mosaic CCD.

Orbital elements:  C162Y75
   Perihelion 2025 Dec 4.470791 +/- 32.5 TT = 11:17:56.3 (JD 2461013.970791)
Epoch 2025 Oct  4.0 TT = JDT 2460952.5   Earth MOID: 0.0201   Ve: 0.0142
M 324.053779288 +/- 30              Me: 0.0356   Ma: 0.0420      AutoNEOCP
n   0.584769127 +/- 0.448           Peri.  311.530787 +/- 60
a   1.416271204 +/- 0.723           Node   193.824606 +/- 56
e   0.74007193 +/- 0.25             Incl.    5.285239 +/- 3.3
P   1.685/615.616d         H 25.16  G  0.15   U 12.2  SR
q 0.368128637 +/- 0.435    Q 2.464413771 +/- 35.5         (J2000 ecliptic)
From 3 observations 2025 Oct. 4 (16.1 min); mean residual 0".13
Residuals in arcseconds: 
251004 V00  .01-  .13+    251004 V00  .01+  .26-    251004 V00  .00   .13+    

Ephemerides (geocentric):
Date (UTC) HH   RA             Dec           delta  r     elong  mag " sig PA
---- --------  ------------   ------------  ------ ------ -----  --- --------
2025 10 18 02  06 57 56.495   -12 17 49.76  .03467 1.0006  96.0 20.7  71d  80
2025 10 18 03  07 01 34.752   -12 41 10.79  .03451 1.0000  95.0 20.8  71d  80
2025 10 18 04  07 05 15.743   -13 04 33.72  .03435 0.9995  94.1 20.8  71d  80
2025 10 18 05  07 08 59.404   -13 27 57.21  .03420 0.9989  93.2 20.8  71d  80
2025 10 18 06  07 12 45.664   -13 51 19.86  .03407 0.9983  92.3 20.8  71d  80
2025 10 18 07  07 16 34.444   -14 14 40.22  .03394 0.9977  91.3 20.9  71d  80
2025 10 18 08  07 20 25.658   -14 37 56.82  .03382 0.9971  90.4 20.9  71d  79
2025 10 18 09  07 24 19.214   -15 01 08.16  .03372 0.9966  89.4 20.9  71d  79
2025 10 18 10  07 28 15.012   -15 24 12.73  .03362 0.9960  88.4 21.0  70d  79
2025 10 18 11  07 32 12.943   -15 47 08.98  .03354 0.9954  87.5 21.0  70d  79
2025 10 18 12  07 36 12.893   -16 09 55.37  .03346 0.9948  86.5 21.0  70d  79
2025 10 18 13  07 40 14.742   -16 32 30.36  .03340 0.9942  85.5 21.1  70d  79
2025 10 18 14  07 44 18.360   -16 54 52.42  .03335 0.9937  84.5 21.1  70d  79
2025 10 18 15  07 48 23.614   -17 17 00.01  .03331 0.9931  83.5 21.1  70d  79
2025 10 18 16  07 52 30.363   -17 38 51.66  .03328 0.9925  82.5 21.2  70d  79
2025 10 18 17  07 56 38.462   -18 00 25.88  .03326 0.9919  81.5 21.2  70d  79
2025 10 18 18  08 00 47.759   -18 21 41.26  .03326 0.9913  80.6 21.3  70d  79
2025 10 18 19  08 04 58.099   -18 42 36.42  .03326 0.9907  79.6 21.3  69d  79
2025 10 18 20  08 09 09.322   -19 03 10.04  .03328 0.9902  78.6 21.4  69d  79
2025 10 18 21  08 13 21.265   -19 23 20.85  .03330 .98958  77.6 21.4  69d  79
2025 10 18 22  08 17 33.763   -19 43 07.66  .03334 .98899  76.6 21.5  69d  79
2025 10 18 23  08 21 46.647   -20 02 29.34  .03339 .98841  75.6 21.5  69d  79
2025 10 19 00  08 25 59.746   -20 21 24.85  .03345 .98783  74.6 21.6  69d  79
2025 10 19 01  08 30 12.892   -20 39 53.24  .03352 .98724  73.6 21.6  69d  79
2025 10 19 02  08 34 25.912   -20 57 53.64  .03360 .98666  72.7 21.7  69d  79
2025 10 19 03  08 38 38.637   -21 15 25.25  .03369 .98608  71.7 21.7  68d  79
2025 10 19 04  08 42 50.897   -21 32 27.39  .03379 .98549  70.7 21.8  68d  79
2025 10 19 05  08 47 02.525   -21 48 59.47  .03391 .98491  69.8 21.9  68d  79
2025 10 19 06  08 51 13.356   -22 05 00.98  .03403 .98432  68.8 21.9  68d  79
2025 10 19 07  08 55 23.229   -22 20 31.51  .03416 .98374  67.9 22.0  68d  79
2025 10 19 08  08 59 31.986   -22 35 30.77  .03431 .98315  67.0 22.0  68d  79
2025 10 19 09  09 03 39.473   -22 49 58.51  .03446 .98257  66.0 22.1  68d  79
2025 10 19 10  09 07 45.541   -23 03 54.63  .03463 .98199  65.1 22.2  68d  79
2025 10 19 11  09 11 50.048   -23 17 19.07  .03480 .98140  64.2 22.2  68d  79
2025 10 19 12  09 15 52.855   -23 30 11.87  .03498 .98081  63.3 22.3  68d  79
2025 10 19 13  09 19 53.831   -23 42 33.17  .03518 .98023  62.4 22.4  67d  79
2025 10 19 14  09 23 52.851   -23 54 23.16  .03538 .97964  61.5 22.5  67d  79
2025 10 19 15  09 27 49.796   -24 05 42.12  .03559 .97906  60.7 22.5  67d  79
2025 10 19 16  09 31 44.556   -24 16 30.38  .03582 .97847  59.8 22.6  67d  79
2025 10 19 17  09 35 37.026   -24 26 48.34  .03605 .97788  59.0 22.7  67d  79
2025 10 19 18  09 39 27.108   -24 36 36.47  .03628 .97730  58.1 22??  67d  79
2025 10 19 19  09 43 14.714   -24 45 55.29  .03653 .97671  57.3 22??  67d  79
2025 10 19 20  09 46 59.761   -24 54 45.34  .03679 .97612  56.5 22??  67d  79
2025 10 19 21  09 50 42.173   -25 03 07.22  .03705 .97554  55.7 23??  67d  79
2025 10 19 22  09 54 21.884   -25 11 01.59  .03732 .97495  54.9 23??  67d  79
2025 10 19 23  09 57 58.831   -25 18 29.10  .03760 .97436  54.2 23??  67d  79
2025 10 20 00  10 01 32.963   -25 25 30.46  .03789 .97378  53.4 23??  67d  79
2025 10 20 01  10 05 04.231   -25 32 06.38  .03819 .97319  52.7 23??  67d  79